GW3919 Weather Reports


Display with metric or nautical units.
time (UTC)temp
F
wind
direction
speed
MPH
gust
MPH
rain 1hr
in
rain 24hr
in
rain mn
in
humidity
%
barometer
mb
20260505223925 92 53 1.0 4.0 0.00 0.00 0.00 63 1003.7
20260505223422 91 336 4.0 6.0 0.00 0.00 0.00 65 1003.5
20260505222918 91 304 3.0 4.0 0.00 0.00 0.00 65 1003.6
20260505222414 91 233 2.0 2.0 0.00 0.00 0.00 63 1003.8
20260505221910 89 292 4.0 5.0 0.00 0.00 0.00 66 1003.6
20260505221408 90 291 2.0 5.0 0.00 0.00 0.00 64 1003.6
20260505220904 93 318 2.0 6.0 0.00 0.00 0.00 60 1003.7
20260505220402 92 319 1.0 4.0 0.00 0.00 0.00 61 1003.7
20260505215859 90 265 2.0 6.0 0.00 0.00 0.00 64 1003.6
20260505215357 92 294 2.0 3.0 0.00 0.00 0.00 62 1003.7
20260505214855 91 313 2.0 4.0 0.00 0.00 0.00 63 1003.8
20260505214352 92 42 2.0 6.0 0.00 0.00 0.00 62 1003.8
20260505213849 91 291 1.0 3.0 0.00 0.00 0.00 63 1003.9
20260505213347 91 314 2.0 4.0 0.00 0.00 0.00 62 1003.9
20260505212842 92 116 2.0 4.0 0.00 0.00 0.00 61 1003.9
20260505212339 92 132 8.0 9.0 0.00 0.00 0.00 60 1004.0
20260505211835 92 170 1.0 5.0 0.00 0.00 0.00 61 1004.1
20260505211333 93 319 2.0 4.0 0.00 0.00 0.00 60 1004.0
20260505210830 92 322 5.0 5.0 0.00 0.00 0.00 60 1004.0
20260505210327 92 330 4.0 4.0 0.00 0.00 0.00 62 1004.0
20260505205824 92 255 2.0 4.0 0.00 0.00 0.00 60 1004.3
20260505205323 91 294 4.0 6.0 0.00 0.00 0.00 61 1004.4
20260505204819 91 165 2.0 4.0 0.00 0.00 0.00 61 1004.4
20260505204317 91 316 4.0 5.0 0.00 0.00 0.00 62 1004.4
20260505203814 91 316 2.0 4.0 0.00 0.00 0.00 62 1004.4
20260505203310 90 6 1.0 6.0 0.00 0.00 0.00 64 1004.5
20260505202807 91 178 2.0 6.0 0.00 0.00 0.00 62 1004.5
20260505202306 90 284 2.0 5.0 0.00 0.00 0.00 62 1004.6
20260505201759 90 245 0.0 5.0 0.00 0.00 0.00 64 1004.8
20260505201256 89 299 4.0 6.0 0.00 0.00 0.00 63 1004.6
20260505200754 90 339 4.0 5.0 0.00 0.00 0.00 64 1004.7
20260505200251 91 260 2.0 3.0 0.00 0.00 0.00 63 1004.6
20260505195746 91 276 2.0 4.0 0.00 0.00 0.00 63 1004.9
20260505195244 89 242 2.0 4.0 0.00 0.00 0.00 65 1004.6
20260505194736 89 311 2.0 3.0 0.00 0.00 0.00 65 1004.6
20260505194233 88 84 1.0 4.0 0.00 0.00 0.00 67 1004.9
20260505193728 88 325 2.0 7.0 0.00 0.00 0.00 67 1004.9
20260505193226 88 150 3.0 4.0 0.00 0.00 0.00 66 1004.8
20260505192725 88 235 2.0 6.0 0.00 0.00 0.00 67 1005.1
20260505192222 87 287 3.0 4.0 0.00 0.00 0.00 68 1004.9
20260505191720 87 343 2.0 4.0 0.00 0.00 0.00 69 1005.0
20260505191218 86 195 2.0 6.0 0.00 0.00 0.00 69 1004.8
20260505190714 87 312 4.0 4.0 0.00 0.00 0.00 69 1005.0
20260505190213 86 316 4.0 5.0 0.00 0.00 0.00 71 1005.0
20260505185710 86 92 1.0 6.0 0.00 0.00 0.00 71 1005.1
20260505185207 85 344 2.0 5.0 0.00 0.00 0.00 72 1005.2
20260505184703 85 130 3.0 6.0 0.00 0.00 0.00 71 1005.2
20260505184201 85 74 2.0 4.0 0.00 0.00 0.00 70 1005.4
20260505183657 84 330 2.0 6.0 0.00 0.00 0.00 72 1005.2
20260505183155 84 53 2.0 6.0 0.00 0.00 0.00 73 1005.3
20260505182650 84 292 2.0 7.0 0.00 0.00 0.00 73 1005.4
20260505182148 84 52 2.0 6.0 0.00 0.00 0.00 72 1005.3
20260505181644 84 242 2.0 4.0 0.00 0.00 0.00 72 1005.3
20260505181142 84 327 3.0 6.0 0.00 0.00 0.00 72 1005.3
20260505180638 83 124 2.0 6.0 0.00 0.00 0.00 72 1005.4
20260505180136 84 349 4.0 4.0 0.00 0.00 0.00 72 1005.3
20260505175631 83 332 2.0 4.0 0.00 0.00 0.00 73 1005.4
20260505175128 84 317 2.0 6.0 0.00 0.00 0.00 71 1005.3
20260505174625 84 339 3.0 4.0 0.00 0.00 0.00 72 1005.3
20260505174121 84 325 2.0 5.0 0.00 0.00 0.00 71 1005.5
20260505173617 85 308 4.0 5.0 0.00 0.00 0.00 70 1005.3
20260505173113 84 229 1.0 4.0 0.00 0.00 0.00 71 1005.2
20260505172611 84 249 2.0 10.0 0.00 0.00 0.00 72 1005.5
20260505172108 83 354 5.0 7.0 0.00 0.00 0.00 72 1005.3
20260505171603 84 319 2.0 4.0 0.00 0.00 0.00 72 1005.4
20260505171100 83 283 4.0 7.0 0.00 0.00 0.00 72 1005.4
20260505170557 83 266 4.0 6.0 0.00 0.00 0.00 72 1005.5
20260505170054 84 233 2.0 5.0 0.00 0.00 0.00 72 1005.3
20260505165549 83 99 2.0 7.0 0.00 0.00 0.00 73 1005.4
20260505165045 81 57 2.0 5.0 0.00 0.00 0.00 75 1005.5
20260505164541 80 298 1.0 6.0 0.00 0.00 0.00 76 1005.3
20260505164038 81 342 2.0 6.0 0.00 0.00 0.00 74 1005.6
20260505163537 81 123 3.0 6.0 0.00 0.00 0.00 74 1005.5
20260505163033 82 319 2.0 5.0 0.00 0.00 0.00 74 1005.1
20260505162526 82 321 4.0 9.0 0.00 0.00 0.00 73 1005.4
20260505162023 82 17 1.0 8.0 0.00 0.00 0.00 74 1005.0
20260505161520 82 44 3.0 4.0 0.00 0.00 0.00 74 1005.2
20260505161017 82 293 5.0 6.0 0.00 0.00 0.00 74 1005.4
20260505160515 82 342 3.0 6.0 0.00 0.00 0.00 76 1005.2
20260505152951 81 320 4.0 8.0 0.00 0.00 0.00 77 1005.3
20260505152449 79 283 3.0 4.0 0.00 0.00 0.00 78 1005.4
20260505151944 78 280 3.0 5.0 0.00 0.00 0.00 80 1005.2
20260505151439 78 92 4.0 7.0 0.00 0.00 0.00 81 1005.2
20260505150937 78 309 2.0 4.0 0.00 0.00 0.00 81 1005.4
20260505150428 77 91 3.0 5.0 0.00 0.00 0.00 83 1005.4
20260505140358 74 305 2.0 4.0 0.00 0.00 0.00 86 1005.3
20260505124812 72 4 2.0 3.0 0.00 0.00 0.00 90 1005.2
20260505124309 71 3 1.0 3.0 0.00 0.00 0.00 90 1005.2
20260505123804 71 332 0.0 3.0 0.00 0.00 0.00 90 1004.8
20260505123301 71 162 2.0 3.0 0.00 0.00 0.00 90 1004.8
20260505122757 71 293 1.0 4.0 0.00 0.00 0.00 90 1004.6
20260505122255 71 349 2.0 5.0 0.00 0.00 0.00 90 1004.6
20260505121751 71 342 3.0 5.0 0.00 0.00 0.00 90 1004.6
20260505121248 71 290 2.0 2.0 0.00 0.00 0.00 90 1004.7
20260505120744 71 356 2.0 4.0 0.00 0.00 0.00 90 1004.6
20260505120241 71 301 2.0 5.0 0.00 0.00 0.00 90 1004.6
20260505115739 71 359 1.0 3.0 0.00 0.00 0.00 91 1004.6
20260505115237 71 317 4.0 4.0 0.00 0.00 0.00 90 1004.5
20260505114734 71 330 2.0 3.0 0.00 0.00 0.00 90 1004.5
20260505114230 71 137 0.0 4.0 0.00 0.00 0.00 90 1004.5
20260505113727 71 91 3.0 4.0 0.00 0.00 0.00 90 1004.3
20260505113223 71 344 1.0 3.0 0.00 0.00 0.00 90 1004.4
20260505112720 71 310 2.0 5.0 0.00 0.00 0.00 90 1004.3
20260505112218 71 74 2.0 3.0 0.00 0.00 0.00 90 1004.5
20260505111717 71 271 1.0 5.0 0.00 0.00 0.00 90 1004.4
20260505111214 71 2 1.0 5.0 0.00 0.00 0.00 90 1004.3
20260505110709 71 356 2.0 3.0 0.00 0.00 0.00 90 1004.5
20260505110207 71 348 3.0 4.0 0.00 0.00 0.00 90 1004.4
20260505102143 71 12 2.0 4.0 0.00 0.00 0.00 89 1004.3
20260505101641 71 278 0.0 4.0 0.00 0.00 0.00 89 1004.3
20260505101137 71 36 4.0 6.0 0.00 0.00 0.00 89 1004.4
20260505100633 71 285 3.0 3.0 0.00 0.00 0.00 89 1004.7
20260505100131 71 298 2.0 4.0 0.00 0.00 0.00 89 1004.4
20260505095627 71 304 6.0 6.0 0.00 0.00 0.00 89 1004.4
20260505095124 71 307 2.0 6.0 0.00 0.00 0.00 89 1004.4
20260505094620 71 83 1.0 5.0 0.00 0.00 0.00 89 1004.6
20260505094116 71 6 1.0 3.0 0.00 0.00 0.00 89 1004.5
20260505093613 71 253 2.0 4.0 0.00 0.00 0.00 89 1004.7
20260505093110 71 287 3.0 4.0 0.00 0.00 0.00 89 1004.7
20260505092607 71 56 2.0 3.0 0.00 0.00 0.00 89 1004.8
20260505092106 71 281 3.0 4.0 0.00 0.00 0.00 89 1004.9
20260505091602 71 331 2.0 6.0 0.00 0.00 0.00 89 1004.7
20260505091101 71 296 3.0 5.0 0.00 0.00 0.00 89 1004.9
20260505090558 71 319 2.0 4.0 0.00 0.00 0.00 89 1004.9
20260505090056 71 328 4.0 4.0 0.00 0.00 0.00 89 1004.6
20260505085553 71 307 2.0 7.0 0.00 0.00 0.00 89 1004.9
20260505085051 71 312 3.0 4.0 0.00 0.00 0.00 89 1004.7
20260505084549 71 291 2.0 6.0 0.00 0.00 0.00 89 1004.7
20260505084047 71 329 2.0 6.0 0.00 0.00 0.00 89 1004.8
20260505083544 71 93 2.0 4.0 0.00 0.00 0.00 89 1004.8
20260505083040 71 344 4.0 5.0 0.00 0.00 0.00 89 1004.7
20260505082536 71 28 1.0 4.0 0.00 0.00 0.00 89 1004.9
20260505082033 71 281 3.0 5.0 0.00 0.00 0.00 89 1004.9
20260505081530 71 349 2.0 6.0 0.00 0.00 0.00 89 1005.1
20260505081027 71 112 1.0 4.0 0.00 0.00 0.00 89 1005.1
20260505080523 71 354 3.0 5.0 0.00 0.00 0.00 89 1005.1
20260505080020 71 321 2.0 4.0 0.00 0.00 0.00 89 1005.1
20260505075516 71 36 2.0 6.0 0.00 0.00 0.00 89 1005.0
20260505075013 71 315 4.0 4.0 0.00 0.00 0.00 89 1005.2
20260505074510 71 291 3.0 5.0 0.00 0.00 0.00 88 1005.3
20260505074007 71 266 3.0 3.0 0.00 0.00 0.00 88 1005.5
20260505073504 71 297 3.0 5.0 0.00 0.00 0.00 88 1005.6
20260505073003 71 351 2.0 5.0 0.00 0.00 0.00 88 1005.8
20260505072458 71 343 2.0 3.0 0.00 0.00 0.00 87 1005.6
20260505071954 71 327 3.0 5.0 0.00 0.00 0.00 87 1005.6
20260505071450 71 201 2.0 5.0 0.00 0.00 0.00 87 1005.7
20260505070948 72 292 3.0 4.0 0.00 0.00 0.00 86 1006.0
20260505070445 72 340 4.0 5.0 0.00 0.00 0.00 86 1005.8
20260505065940 72 7 2.0 4.0 0.00 0.00 0.00 86 1006.0
20260505065437 72 258 4.0 5.0 0.00 0.00 0.00 86 1005.9
20260505064934 72 352 2.0 5.0 0.00 0.00 0.00 85 1005.8
20260505064431 72 349 4.0 5.0 0.00 0.00 0.00 85 1006.1
20260505063929 72 342 3.0 6.0 0.00 0.00 0.00 85 1006.2
20260505063425 72 246 1.0 5.0 0.00 0.00 0.00 85 1006.1
20260505062922 72 247 2.0 4.0 0.00 0.00 0.00 84 1006.1
20260505062419 72 297 2.0 4.0 0.00 0.00 0.00 84 1006.1
20260505061916 72 353 1.0 4.0 0.00 0.00 0.00 84 1006.1
20260505061414 73 330 5.0 8.0 0.00 0.00 0.00 84 1006.3
20260505060911 73 346 0.0 3.0 0.00 0.00 0.00 83 1006.2
20260505060408 73 282 2.0 5.0 0.00 0.00 0.00 83 1006.2
20260505055904 73 258 2.0 4.0 0.00 0.00 0.00 83 1006.4
20260505055400 73 322 1.0 4.0 0.00 0.00 0.00 83 1006.2
20260505054857 73 284 3.0 3.0 0.00 0.00 0.00 83 1006.1
20260505054355 73 119 2.0 4.0 0.00 0.00 0.00 82 1006.2
20260505053853 73 112 4.0 11.0 0.00 0.00 0.00 82 1006.2
20260505053350 73 313 2.0 4.0 0.00 0.00 0.00 82 1006.2
20260505052846 73 349 2.0 4.0 0.00 0.00 0.00 82 1006.1
20260505052343 73 297 3.0 5.0 0.00 0.00 0.00 82 1006.4
20260505051840 73 182 2.0 4.0 0.00 0.00 0.00 81 1006.4
20260505051337 73 305 3.0 5.0 0.00 0.00 0.00 81 1006.5
20260505050836 73 313 2.0 5.0 0.00 0.00 0.00 81 1006.4
20260505050334 73 52 2.0 4.0 0.00 0.00 0.00 80 1006.4
20260505041301 73 326 2.0 2.0 0.00 0.00 0.00 79 1006.8
20260505040758 73 99 1.0 3.0 0.00 0.00 0.00 79 1006.7
20260505040256 73 340 2.0 3.0 0.00 0.00 0.00 78 1006.8
20260505035752 74 241 3.0 4.0 0.00 0.00 0.00 78 1006.7
20260505035248 73 340 2.0 3.0 0.00 0.00 0.00 78 1006.6
20260505034745 73 316 2.0 3.0 0.00 0.00 0.00 78 1006.7
20260505034242 74 324 2.0 5.0 0.00 0.00 0.00 78 1006.5
20260505033738 74 358 1.0 3.0 0.00 0.00 0.00 78 1006.5
20260505033236 74 258 2.0 3.0 0.00 0.00 0.00 77 1006.7
20260505032734 74 342 2.0 3.0 0.00 0.00 0.00 77 1006.7
20260505032230 74 212 3.0 3.0 0.00 0.00 0.00 77 1006.7
20260505031728 74 315 3.0 5.0 0.00 0.00 0.00 77 1006.7
20260505031224 74 347 2.0 3.0 0.00 0.00 0.00 77 1006.7
20260505030721 74 328 2.0 4.0 0.00 0.00 0.00 76 1006.8
20260505030217 74 339 3.0 3.0 0.00 0.00 0.00 76 1006.8
20260505025713 74 284 3.0 5.0 0.00 0.00 0.00 76 1006.8
20260505025211 75 313 3.0 4.0 0.00 0.00 0.00 75 1006.9
20260505024709 75 316 3.0 4.0 0.00 0.00 0.00 75 1006.8
20260505024206 75 319 2.0 5.0 0.00 0.00 0.00 75 1007.0
20260505023703 75 295 2.0 6.0 0.00 0.00 0.00 75 1006.8
20260505023200 75 320 2.0 4.0 0.00 0.00 0.00 75 1006.2
20260505022658 75 338 1.0 4.0 0.00 0.00 0.00 74 1006.3
20260505022154 75 299 2.0 4.0 0.00 0.00 0.00 74 1006.2
20260505021651 75 323 3.0 4.0 0.00 0.00 0.00 74 1006.5
20260505021148 75 1 2.0 3.0 0.00 0.00 0.00 74 1006.5
20260505020643 75 328 2.0 3.0 0.00 0.00 0.00 73 1006.3
20260505020139 75 293 2.0 4.0 0.00 0.00 0.00 73 1006.2
20260505015637 75 1 2.0 5.0 0.00 0.00 0.00 73 1006.5
20260505015133 76 214 1.0 3.0 0.00 0.00 0.00 73 1006.5
20260505014630 76 275 3.0 5.0 0.00 0.00 0.00 72 1006.5
20260505014127 76 332 1.0 4.0 0.00 0.00 0.00 72 1006.4
20260505013625 76 317 2.0 7.0 0.00 0.00 0.00 72 1006.5
20260505013121 76 248 1.0 4.0 0.00 0.00 0.00 71 1006.3
20260505012620 76 235 1.0 5.0 0.00 0.00 0.00 71 1006.4
20260505012116 76 319 1.0 6.0 0.00 0.00 0.00 71 1006.4
20260505011612 77 278 2.0 6.0 0.00 0.00 0.00 70 1006.5
20260505011110 77 71 0.0 6.0 0.00 0.00 0.00 70 1006.3
20260505010605 77 54 0.0 4.0 0.00 0.00 0.00 70 1006.4
20260505005558 77 346 1.0 3.0 0.00 0.00 0.00 70 1006.3
20260505005055 77 227 2.0 4.0 0.00 0.00 0.00 69 1006.2
20260505004552 78 56 1.0 5.0 0.00 0.00 0.00 69 1006.4
20260505004049 78 329 2.0 5.0 0.00 0.00 0.00 68 1006.5
20260505003546 78 258 0.0 7.0 0.00 0.00 0.00 68 1006.4
20260505003044 79 343 3.0 5.0 0.00 0.00 0.00 67 1006.3
20260505002543 79 347 5.0 7.0 0.00 0.00 0.00 66 1006.3
20260505002037 79 315 2.0 6.0 0.00 0.00 0.00 66 1006.5
20260505001534 79 4 4.0 5.0 0.00 0.00 0.00 66 1006.7
20260505001031 79 13 2.0 5.0 0.00 0.00 0.00 66 1006.8
20260505000529 79 349 2.0 4.0 0.00 0.00 0.00 65 1006.7
20260505000026 80 2 2.0 12.0 0.00 0.00 0.00 65 1006.6
20260504235523 79 337 5.0 6.0 0.00 0.00 0.00 65 1006.4
20260504235019 79 63 4.0 9.0 0.00 0.00 0.00 65 1006.8
20260504234517 80 88 3.0 4.0 0.00 0.00 0.00 65 1006.9
20260504234014 79 309 2.0 5.0 0.00 0.00 0.00 65 1006.9
20260504233509 79 339 5.0 8.0 0.00 0.00 0.00 65 1006.9
20260504233006 79 260 2.0 5.0 0.00 0.00 0.00 65 1006.8
20260504232503 80 285 1.0 4.0 0.00 0.00 0.00 64 1006.8
20260504232000 80 334 4.0 9.0 0.00 0.00 0.00 63 1006.8
20260504231456 80 277 6.0 9.0 0.00 0.00 0.00 63 1006.9
20260504230953 80 12 2.0 6.0 0.00 0.00 0.00 63 1007.0
20260504230449 81 315 5.0 12.0 0.00 0.00 0.00 62 1007.2
20260504225948 82 312 3.0 6.0 0.00 0.00 0.00 60 1007.2
20260504225445 82 350 4.0 6.0 0.00 0.00 0.00 60 1007.1
20260504224942 83 35 5.0 8.0 0.00 0.00 0.00 59 1007.2
20260504224438 82 323 2.0 6.0 0.00 0.00 0.00 61 1007.3